www.pogodaiklimat.ru

Погода и климат >> Архив погоды >> Россия >> Нижегородская область >> Лукоянов


ПОГОДА в Лукоянове

  • Прогноз погоды в Лукоянове
  • Монитор погоды в Лукоянове
  • Климат города

АРХИВ ПОГОДЫ в Лукоянове

Время (UTC), дата Ветер
(напр.,м/с)
 
Видим.   Явления Облачность Т
(С)
Тd
(С)
f
(%)
Тe
(С)
Тes
(С)
Комфортность P
(гПа)
Po
(гПа)
Тmin
(С)
Tmax
(С)
R
(мм)
R24
(мм)
S
(см)
03 16.04 З 2-3
{4}
10 км ясно +3.0 -4.2 59 +1 +1 1019.8 992.7 +2.1
06 16.04 З 4-2
{3}
20 км ясно +11.4 -1.4 41 +10 +14 1019.3 992.9
09 16.04 З 2-4
{5}
20 км ясно +15.8 -5.0 24 +16 +28 опасность
простуды
1018.7 992.7
12 16.04 З 3-6
{7}
20 км ясно +16.6 -3.6 25 +16 +22 1017.5 991.7
15 16.04 СЗ 2-4
{7}
20 км ясно +15.8 -4.1 25 +16 +17 1016.3 990.4 +17.0
18 16.04 С 1-2
{4}
10 км ясно +10.5 -4.7 34 +11 +11 1017.5 991.1
21 16.04 Ю 1-1
{2}
10 км ясно +6.7 -4.2 46 +6 +6 1017.3 990.6
00 17.04 Ю 1-1
{2}
10 км ясно +7.1 -3.8 46 +7 +7 1016.8 990.2
03 17.04 В 1-1
{2}
10 км ясно +6.7 -3.4 48 +6 +7 1017.1 990.4 +4.3
06 17.04 В 2-3
{3}
20 км ясно +14.0 -1.2 35 +14 +21 1016.9 990.9
09 17.04 СЗ 2-3
{5}
20 км ясно +18.2 -4.4 21 +19 +31 опасность
простуды
1016.2 990.6
12 17.04 ЮЗ 2-4
{6}
20 км 3/3 1000 м
[Cu med, cong]
+20.0 -3.0 21 +20 +25 1015.3 989.8
15 17.04 штиль 0
{5}
20 км 10/0
[Ci fib]
+18.2 -1.7 26 +18 +19 1014.7 989.1 +20.0
18 17.04 З 1-2
{3}
10 км 10/0
[Ac und]
+13.8 +0.6 40 +14 +14 1015.4 989.3
21 17.04 ЮЗ 2-3
{3}
10 км ясно +10.0 +1.9 57 +9 +9 1015.4 989.0
00 18.04 З 1-2
{3}
10 км ясно +8.0 +2.3 67 +7 +7 1015.1 988.6
03 18.04 ЮВ 1-2
{2}
10 км 10/0
[Ci fib]
+7.8 +5.1 83 +7 +8 1014.4 987.9 +6.2
06 18.04 В 1-2
{3}
10 км 10/0
[As op]
+9.6 +6.5 81 +9 +11 1013.5 987.2
09 18.04 Ю 1-2
{3}
10 км 10/0
[As op]
+12.6 +8.4 76 +13 +16 1012.5 986.5
12 18.04 В 1-2
{3}
4000 м слабый дождь 10/0
[As op]
+11.2 +10.0 92 +11 +13 1011.6 985.6
15 18.04 В 2-4
{6}
4000 м дымка {дождь} 10/10 600 м
[Cb cap]
+10.6 +9.7 94 +9 +9 1009.7 983.6 +12.6 0.5
18 18.04 В 2-3
{4}
4000 м дымка {дождь} 10/10 600 м
[Cb cap]
+9.4 +8.8 96 +8 +8 1007.2 981.1
21 18.04 В 3-6
{6}
4000 м слабый ливневой дождь 10/10 600 м
[Cb cap]
+9.0 +8.6 97 +6 +6 1004.0 977.8
00 19.04 В 3-5
{8}
4000 м слабый ливневой дождь 10/10 300 м
[Cb cap]
+8.4 +8.0 97 +6 +6 1000.7 974.6
03 19.04 В 2-5
{6}
4000 м слабый ливневой дождь 10/10 300 м
[Cb cap]
+8.2 +7.8 97 +6 +6 999.0 972.9 +8.2 6
06 19.04 Ю 2-4
{6}
500 м слабая морось {ливн. осадки} ?/? +6.7 +6.7 100 +4 +4 999.8 973.6 +6.7
09 19.04 СВ 1-2
{4}
10 км {морось, туман} 10/10 300 м
[Cb cap]
+8.4 +5.8 84 +8 +8 1000.1 974.0
12 19.04 С 2-3
{3}
20 км {морось, туман} 10/10 600 м
[Cb cap]
+9.1 +6.2 82 +7 +7 1000.7 974.6
15 19.04 С 1-2
{3}
10 км в посл. час ливневой дождь 10/10 600 м
[Cb cap]
+8.0 +7.4 96 +7 +7 1001.2 975.1 +9.2 0.7
18 19.04 С 2-4
{5}
4000 м дымка {ливн. осадки} 10/10 300 м
[St]
+5.9 +5.4 97 +3 +3 1002.3 976.0
21 19.04 С 2-5
{6}
4000 м дымка {морось} 10/10 300 м
[St]
+5.8 +5.3 97 +3 +3 1002.9 976.5
00 20.04 С 2-5
{6}
4000 м дымка {морось} 10/10 300 м
[St]
+5.8 +5.3 97 +3 +3 1003.2 976.8
03 20.04 С 3-7
{8}
4000 м слабый ливневой дождь 10/10 600 м
[Cb cap]
+5.9 +5.2 95 +2 +2 1004.4 978.0 +5.7 0.5
06 20.04 С 4-8
{10}
20 км {ливн. осадки} ясно +7.2 +1.3 66 +4 +9 1006.9 980.5 +4.6
09 20.04 С 5-10
{11}
20 км 3/3 1000 м
[Cu med, cong]
+9.8 -0.9 47 +7 +12 1008.2 982.0
12 20.04 С 5-9
{11}
20 км 5/5 600 м
[Cb cap]
+9.4 -1.4 47 +7 +9 1009.4 983.1
15 20.04 СЗ 5-10
{10}
20 км 3/3 1000 м
[Cu med, cong]
+8.6 -5.0 38 +6 +6 1010.0 983.6 +11.0 0.0
18 20.04 С 1-2
{10}
10 км ясно +3.7 -5.2 52 +3 +3 1011.7 984.8
21 20.04 С 2-3
{3}
10 км ясно +1.9 -6.2 55 -1 -1 1011.3 984.3
00 21.04 штиль 0-1
{3}
10 км ясно -1.1 -5.8 70 -2 -2 1011.0 983.7
03 21.04 ЮВ 2-3
{3}
10 км 3/0
[Ci fib]
+0.6 -6.7 58 -2 -2 1009.6 982.5 -1.6
06 21.04 Ю 2-4
{5}
20 км 10/0
[Ac und]
+6.4 -4.6 45 +5 +7 1007.0 980.5
09 21.04 Ю 4-7
{10}
10 км 10/0
[Ac und]
+7.6 -1.4 53 +5 +7 1003.4 977.1
12 21.04 Ю 6-12
{12}
10 км слабый ливневой дождь 10/4 600 м
[Cb cap Ac und]
+7.2 +2.9 74 +3 +3 998.0 971.9
15 21.04 Ю 6-12
{13}
10 км {ливн. осадки} 10/0
[Ci fib]
+9.6 +4.1 69 +6 +7 992.2 966.5 +9.6 0.0
18 21.04 Ю 5-10
{11}
10 км {ливн. осадки} 10/0
[Ac und]
+11.6 +4.3 61 +9 +9 986.5 961.1
21 21.04 З 6-12
{19}
10 км 10/0
[Ac und]
+9.2 +8.0 92 +5 +5 983.6 958.0
00 22.04 З 4-6
{10}
10 км {ливн. осадки} 5/3 600 м
[Cb cap Ac und]
+8.5 +7.8 95 +5 +5 982.3 956.7
03 22.04 З 4-8
{10}
10 км {ливн. осадки} 10/10 600 м
[Cb cap]
+5.2 +3.3 88 +1 +1 982.6 956.7 +5.2 1
06 22.04 З 6-13
{14}
10 км {ливн. осадки} 10/10 600 м
[Cb cap]
+1.6 +0.2 90 -5 -5 985.0 958.6
09 22.04 З 7-14
{14}
10 км 10/10 600 м
[Cb cap]
+1.5 -1.3 82 -5 -5 988.6 962.2
12 22.04 З 6-12
{14}
20 км 10/10 600 м
[Cb cap]
+0.6 -3.4 75 -6 -6 992.7 966.1
15 22.04 З 6-12
{13}
10 км 10/10 600 м
[Cb cap]
+0.3 -3.4 76 -6 -6 995.8 969.0 +5.2
18 22.04 СЗ 4-9
{12}
10 км 10/10 600 м
[Cb cap]
-0.8 -4.0 79 -6 -6 998.9 972.0
21 22.04 СЗ 6-12
{12}
10 км 10/10 600 м
[Cb cap]
-1.2 -5.2 74 -8 -8 1000.6 973.5

 

Местоположение метеостанции Лукоянов (Нижегородская область, Россия): широта 55.03 долгота 44.50 высота над уровнем моря 219 м.

В архиве по умолчанию представлена погода в Лукоянове за последнюю неделю. Архивные данные за месяц целиком и за предыдущие месяцы, начиная с января 2011 года, Вы можете получить, выбрав интересующий диапазон дат из раскрывающегося списка и нажав кнопку "Ввод!".


*Определитесь, кто Вы:
робот инопланетянин человек

Внимание! Время в таблицах - всемирное. Для получения местного времени необходимо прибавить поправку, которая в Лукоянове равна 3 ч.

Смотрите также архив погоды в соседних городах и на ближайших метеорологических станциях:

Погода в Большом Болдино (Нижегородская область, Россия) (52 км)
Погода в Арзамасе (Нижегородская область, Россия) (59 км)
Погода в Краснослободске (Мордовия, Россия) (82 км)
Погода в Сергаче (Нижегородская область, Россия) (84 км)
Погода в Дальнем Константиново (Нижегородская область, Россия) (90 км)
Погода в Темникове (Мордовия, Россия) (93 км)
Погода в Саранске (Мордовия, Россия) (111 км)
Погода в Лысково (Нижегородская область, Россия) (114 км)
Погода в Порецком (Чувашия, Россия) (118 км)
Погода в Инсаре (Мордовия, Россия) (129 км)

Пояснения к столбцам:

Ветер - указаны скорость ветра в м/с - средняя за 10 мин, порывы в срок и между сроками (в фигурных скобках) и направление, откуда дует ветер: С - северный, СВ - северо-восточный, В - восточный, ЮВ - юго-восточный, Ю - южный, ЮЗ - юго-западный, З - западный, СЗ - северо-западный.
Видимость - горизонтальная дальность видимости в метрах или километрах. При видимости от 1 до 10 км при отсутствии осадков обычно наблюдается дымка, при ухудшении видимости до 1 км и менее - туман. В сухую погоду видимость может ухудшаться дымом, пылью или мглою.
Явления - указаны атмосферные явления, наблюдавшиеся в срок или в последний час перед сроком; фигурными скобками обозначены явления, наблюдавшиеся между сроками (за 1-3 часа до срока); квадратными скобками обозначены град или гололедные отложения с указанием их диаметра в мм.
Облачность - указаны через наклонную черту общая и нижняя облачность в баллах и высота нижней границы облаков в метрах; квадратными скобками обозначены формы облаков: Ci - перистые, Cs - перисто-слоистые, Cc - перисто-кучевые, Ac - высококучевые, As - высокослоистые, Sc - слоисто-кучевые, Ns - слоисто-дождевые, Cu - кучевые, Cb - кучево-дождевые. Подробнее классификацию облаков см. в Атласе облаков (PDF).
T - Температура воздуха - температура, измеренная на высоте 2 м над землей.
Td - Температура точки росы - температура, при понижении до которой содержащийся в воздухе водяной пар достигнет насыщения.
f - Относительная влажность воздуха - влажноcть воздуха, измеренная на высоте 2 м над землей.
Te - Эффективная температура - температура, которую ощущает одетый по сезону человек в тени. Характеристика душности погоды. При расчете учитывается влияние влажности воздуха и скорости ветра на теплоощущения человека.
Tes - Эффективная температура на солнце - температура, которую ощущает человек, с поправкой на солнечный нагрев. Характеристика знойности погоды. Зависит от высоты солнца над горизонтом, облачности и скорости ветра. Ночью, в пасмурную погоду, а также при ветре 12 м/с и более поправка равна нулю.
P - Атмосферное давление - приведенное к уровню моря атмосферное давление.
Po - Атмосферное давление - измеренное на уровне метеостанции атмосферное давление.
Tmin - Минимальная температура - минимум температуры воздуха на высоте 2 м над землей.
Tmax - Максимальная температура - максимум температуры воздуха на высоте 2 м над землей.
R - Количество осадков - Количество выпавших осадков за период времени, мм. При наведении курсора мыши на число - период времени, за который выпало указанное количество осадков.
R24 - Количество осадков - Количество выпавших осадков за 24 часа, мм.
S - Снежный покров - Высота снежного покрова, см. При наведении курсора мыши на число - состояние снежного покрова и степень покрытия местности в баллах.